Time,TemperatureF,DewpointF,PressureIn,WindDirection,WindDirectionDegrees,WindSpeedMPH,WindSpeedGustMPH,Humidity,HourlyPrecipIn,Conditions,Clouds,dailyrainin,SolarRadiationWatts/m^2,SoftwareType,DateUTC
2013-04-04 00:01:00,34.0,12.0,-100.00,SW,231,12.0,23.0,40,0.00,,,0.00,0.000000,,2013-04-04 04:01:00,
2013-04-04 00:34:00,34.0,12.0,-100.00,SW,231,12.0,23.0,40,0.00,,,0.00,0.000000,,2013-04-04 04:34:00,
2013-04-04 00:43:00,34.0,12.0,-100.00,SW,231,12.0,23.0,40,0.00,,,0.00,0.000000,,2013-04-04 04:43:00,
2013-04-04 00:53:00,34.0,12.0,-100.00,SW,231,12.0,23.0,40,0.00,,,0.00,0.000000,,2013-04-04 04:53:00,
2013-04-04 01:01:00,35.0,16.0,-100.00,SW,233,13.0,29.0,45,0.00,,,0.00,0.000000,,2013-04-04 05:01:00,
2013-04-04 01:32:00,35.0,16.0,-100.00,SW,233,13.0,29.0,45,0.00,,,0.00,0.000000,,2013-04-04 05:32:00,
2013-04-04 01:42:00,35.0,16.0,-100.00,SW,233,13.0,29.0,45,0.00,,,0.00,0.000000,,2013-04-04 05:42:00,
2013-04-04 01:53:00,35.0,16.0,-100.00,SW,233,13.0,29.0,45,0.00,,,0.00,0.000000,,2013-04-04 05:53:00,
2013-04-04 02:01:00,36.0,19.0,-100.00,WSW,239,14.0,30.0,49,0.00,,,0.00,0.000000,,2013-04-04 06:01:00,
2013-04-04 02:33:00,36.0,19.0,-100.00,WSW,239,14.0,30.0,49,0.00,,,0.00,0.000000,,2013-04-04 06:33:00,
2013-04-04 02:43:00,36.0,19.0,-100.00,WSW,239,14.0,30.0,49,0.00,,,0.00,0.000000,,2013-04-04 06:43:00,
2013-04-04 02:53:00,36.0,19.0,-100.00,WSW,239,14.0,30.0,49,0.00,,,0.00,0.000000,,2013-04-04 06:53:00,
2013-04-04 03:01:00,35.0,24.0,-100.00,SW,235,14.0,27.0,64,0.00,,,0.00,0.000000,,2013-04-04 07:01:00,
2013-04-04 03:22:00,35.0,24.0,-100.00,SW,235,14.0,27.0,64,0.00,,,0.00,0.000000,,2013-04-04 07:22:00,
2013-04-04 03:32:00,35.0,24.0,-100.00,SW,235,14.0,27.0,64,0.00,,,0.00,0.000000,,2013-04-04 07:32:00,
2013-04-04 03:43:00,35.0,24.0,-100.00,SW,235,14.0,27.0,64,0.00,,,0.00,0.000000,,2013-04-04 07:43:00,
2013-04-04 03:53:00,35.0,24.0,-100.00,SW,235,14.0,27.0,64,0.00,,,0.00,0.000000,,2013-04-04 07:53:00,
2013-04-04 04:01:00,36.0,23.0,-100.00,WSW,245,12.0,27.0,58,0.00,,,0.00,0.000000,,2013-04-04 08:01:00,
2013-04-04 04:32:00,36.0,23.0,-100.00,WSW,245,12.0,27.0,58,0.00,,,0.00,0.000000,,2013-04-04 08:32:00,
2013-04-04 04:43:00,36.0,23.0,-100.00,WSW,245,12.0,27.0,58,0.00,,,0.00,0.000000,,2013-04-04 08:43:00,
2013-04-04 04:52:00,36.0,23.0,-100.00,WSW,245,12.0,27.0,58,0.00,,,0.00,0.000000,,2013-04-04 08:52:00,
2013-04-04 05:01:00,38.0,23.0,-100.00,WSW,241,8.0,18.0,54,0.00,,,0.00,0.000000,,2013-04-04 09:01:00,
2013-04-04 05:34:00,38.0,23.0,-100.00,WSW,241,8.0,18.0,54,0.00,,,0.00,0.000000,,2013-04-04 09:34:00,
2013-04-04 05:44:00,38.0,23.0,-100.00,WSW,241,8.0,18.0,54,0.00,,,0.00,0.000000,,2013-04-04 09:44:00,
2013-04-04 05:54:00,38.0,23.0,-100.00,WSW,241,8.0,18.0,54,0.00,,,0.00,0.000000,,2013-04-04 09:54:00,
2013-04-04 06:01:00,38.0,22.0,-100.00,WSW,256,10.0,27.0,53,0.00,,,0.00,0.000000,,2013-04-04 10:01:00,
2013-04-04 06:34:00,38.0,22.0,-100.00,WSW,256,10.0,27.0,53,0.00,,,0.00,0.000000,,2013-04-04 10:34:00,
2013-04-04 06:43:00,38.0,22.0,-100.00,WSW,256,10.0,27.0,53,0.00,,,0.00,0.000000,,2013-04-04 10:43:00,
2013-04-04 06:54:00,38.0,22.0,-100.00,WSW,256,10.0,27.0,53,0.00,,,0.00,0.000000,,2013-04-04 10:54:00,
2013-04-04 07:01:00,37.0,23.0,-100.00,WSW,253,8.0,16.0,57,0.00,,,0.00,0.000000,,2013-04-04 11:01:00,
2013-04-04 07:23:00,37.0,23.0,-100.00,WSW,253,8.0,16.0,57,0.00,,,0.00,0.000000,,2013-04-04 11:23:00,
2013-04-04 07:33:00,37.0,23.0,-100.00,WSW,253,8.0,16.0,57,0.00,,,0.00,0.000000,,2013-04-04 11:33:00,
2013-04-04 07:43:00,37.0,23.0,-100.00,WSW,253,8.0,16.0,57,0.00,,,0.00,0.000000,,2013-04-04 11:43:00,
2013-04-04 07:54:00,37.0,23.0,-100.00,WSW,253,8.0,16.0,57,0.00,,,0.00,0.000000,,2013-04-04 11:54:00,
2013-04-04 08:01:00,37.0,24.0,-100.00,WSW,255,8.0,18.0,59,0.00,,,0.00,1.000000,,2013-04-04 12:01:00,
2013-04-04 08:33:00,37.0,24.0,-100.00,WSW,255,8.0,18.0,59,0.00,,,0.00,1.000000,,2013-04-04 12:33:00,
2013-04-04 08:43:00,37.0,24.0,-100.00,WSW,255,8.0,18.0,59,0.00,,,0.00,1.000000,,2013-04-04 12:43:00,
2013-04-04 08:52:00,37.0,24.0,-100.00,WSW,255,8.0,18.0,59,0.00,,,0.00,1.000000,,2013-04-04 12:52:00,
2013-04-04 09:01:00,37.0,24.0,-100.00,West,266,6.0,13.0,60,0.00,,,0.00,21.000000,,2013-04-04 13:01:00,
2013-04-04 09:33:00,37.0,24.0,-100.00,West,266,6.0,13.0,60,0.00,,,0.00,21.000000,,2013-04-04 13:33:00,
2013-04-04 09:43:00,37.0,24.0,-100.00,West,266,6.0,13.0,60,0.00,,,0.00,21.000000,,2013-04-04 13:43:00,
2013-04-04 09:53:00,37.0,24.0,-100.00,West,266,6.0,13.0,60,0.00,,,0.00,21.000000,,2013-04-04 13:53:00,
2013-04-04 10:01:00,39.0,26.0,-100.00,West,273,6.0,12.0,59,0.00,,,0.00,99.000000,,2013-04-04 14:01:00,
2013-04-04 10:22:00,39.0,26.0,-100.00,West,273,6.0,12.0,59,0.00,,,0.00,99.000000,,2013-04-04 14:22:00,
2013-04-04 10:33:00,39.0,26.0,-100.00,West,273,6.0,12.0,59,0.00,,,0.00,99.000000,,2013-04-04 14:33:00,
2013-04-04 10:43:00,39.0,26.0,-100.00,West,273,6.0,12.0,59,0.00,,,0.00,99.000000,,2013-04-04 14:43:00,
2013-04-04 10:53:00,39.0,26.0,-100.00,West,273,6.0,12.0,59,0.00,,,0.00,99.000000,,2013-04-04 14:53:00,
2013-04-04 11:01:00,39.0,28.0,-100.00,NW,325,7.0,17.0,65,0.00,,,0.00,165.000000,,2013-04-04 15:01:00,
2013-04-04 11:34:00,39.0,28.0,-100.00,NW,325,7.0,17.0,65,0.00,,,0.00,165.000000,,2013-04-04 15:34:00,
2013-04-04 11:43:00,39.0,28.0,-100.00,NW,325,7.0,17.0,65,0.00,,,0.00,165.000000,,2013-04-04 15:43:00,
2013-04-04 11:54:00,39.0,28.0,-100.00,NW,325,7.0,17.0,65,0.00,,,0.00,165.000000,,2013-04-04 15:54:00,
2013-04-04 12:01:00,41.0,27.0,-100.00,NNW,328,9.0,16.0,57,0.00,,,0.00,396.000000,,2013-04-04 16:01:00,
2013-04-04 12:25:00,41.0,27.0,-100.00,NNW,328,9.0,16.0,57,0.00,,,0.00,396.000000,,2013-04-04 16:25:00,
2013-04-04 12:33:00,41.0,27.0,-100.00,NNW,328,9.0,16.0,57,0.00,,,0.00,396.000000,,2013-04-04 16:33:00,
2013-04-04 12:43:00,41.0,27.0,-100.00,NNW,328,9.0,16.0,57,0.00,,,0.00,396.000000,,2013-04-04 16:43:00,
2013-04-04 13:01:00,45.0,24.0,-100.00,NW,309,8.0,16.0,44,0.00,,,0.00,713.000000,,2013-04-04 17:01:00,
2013-04-04 13:23:00,45.0,24.0,-100.00,NW,309,8.0,16.0,44,0.00,,,0.00,713.000000,,2013-04-04 17:23:00,
2013-04-04 13:33:00,45.0,24.0,-100.00,NW,309,8.0,16.0,44,0.00,,,0.00,713.000000,,2013-04-04 17:33:00,
2013-04-04 13:43:00,45.0,24.0,-100.00,NW,309,8.0,16.0,44,0.00,,,0.00,713.000000,,2013-04-04 17:43:00,
2013-04-04 13:53:00,45.0,24.0,-100.00,NW,309,8.0,16.0,44,0.00,,,0.00,713.000000,,2013-04-04 17:53:00,
2013-04-04 14:01:00,45.0,20.0,-100.00,NW,313,11.0,20.0,36,0.00,,,0.00,676.000000,,2013-04-04 18:01:00,
2013-04-04 14:33:00,45.0,20.0,-100.00,NW,313,11.0,20.0,36,0.00,,,0.00,676.000000,,2013-04-04 18:33:00,
2013-04-04 14:43:00,45.0,20.0,-100.00,NW,313,11.0,20.0,36,0.00,,,0.00,676.000000,,2013-04-04 18:43:00,
2013-04-04 14:52:00,45.0,20.0,-100.00,NW,313,11.0,20.0,36,0.00,,,0.00,676.000000,,2013-04-04 18:52:00,
2013-04-04 15:01:00,44.0,19.0,-100.00,NW,317,11.0,20.0,37,0.00,,,-99.99,756.000000,,2013-04-04 19:01:00,
2013-04-04 15:33:00,44.0,19.0,-100.00,NW,317,11.0,20.0,37,0.00,,,-99.99,756.000000,,2013-04-04 19:33:00,
2013-04-04 15:43:00,44.0,19.0,-100.00,NW,317,11.0,20.0,37,0.00,,,-99.99,756.000000,,2013-04-04 19:43:00,
2013-04-04 15:52:00,44.0,19.0,-100.00,NW,317,11.0,20.0,37,0.00,,,-99.99,756.000000,,2013-04-04 19:52:00,
2013-04-04 16:01:00,44.0,21.0,-100.00,NNW,327,11.0,25.0,39,0.00,,,0.00,836.000000,,2013-04-04 20:01:00,
2013-04-04 16:33:00,44.0,21.0,-100.00,NNW,327,11.0,25.0,39,0.00,,,0.00,836.000000,,2013-04-04 20:33:00,
2013-04-04 16:42:00,44.0,21.0,-100.00,NNW,327,11.0,25.0,39,0.00,,,0.00,836.000000,,2013-04-04 20:42:00,
2013-04-04 16:53:00,44.0,21.0,-100.00,NNW,327,11.0,25.0,39,0.00,,,0.00,836.000000,,2013-04-04 20:53:00,
2013-04-04 17:01:00,44.0,19.0,-100.00,NW,313,9.0,20.0,37,0.00,,,0.00,708.000000,,2013-04-04 21:01:00,
2013-04-04 17:22:00,44.0,19.0,-100.00,NW,313,9.0,20.0,37,0.00,,,0.00,708.000000,,2013-04-04 21:22:00,
2013-04-04 17:33:00,44.0,19.0,-100.00,NW,313,9.0,20.0,37,0.00,,,0.00,708.000000,,2013-04-04 21:33:00,
2013-04-04 17:43:00,44.0,19.0,-100.00,NW,313,9.0,20.0,37,0.00,,,0.00,708.000000,,2013-04-04 21:43:00,
2013-04-04 17:53:00,44.0,19.0,-100.00,NW,313,9.0,20.0,37,0.00,,,0.00,708.000000,,2013-04-04 21:53:00,
2013-04-04 18:01:00,43.0,17.0,-100.00,NW,312,10.0,20.0,35,0.00,,,0.00,558.000000,,2013-04-04 22:01:00,
2013-04-04 18:33:00,43.0,17.0,-100.00,NW,312,10.0,20.0,35,0.00,,,0.00,558.000000,,2013-04-04 22:33:00,
2013-04-04 18:43:00,43.0,17.0,-100.00,NW,312,10.0,20.0,35,0.00,,,0.00,558.000000,,2013-04-04 22:43:00,
2013-04-04 18:53:00,43.0,17.0,-100.00,NW,312,10.0,20.0,35,0.00,,,0.00,558.000000,,2013-04-04 22:53:00,
2013-04-04 19:01:00,41.0,17.0,-100.00,NW,312,10.0,19.0,37,0.00,,,0.00,360.000000,,2013-04-04 23:01:00,
2013-04-04 19:22:00,41.0,17.0,-100.00,NW,312,10.0,19.0,37,0.00,,,0.00,360.000000,,2013-04-04 23:22:00,
2013-04-04 19:32:00,41.0,17.0,-100.00,NW,312,10.0,19.0,37,0.00,,,0.00,360.000000,,2013-04-04 23:32:00,
2013-04-04 19:42:00,41.0,17.0,-100.00,NW,312,10.0,19.0,37,0.00,,,0.00,360.000000,,2013-04-04 23:42:00,
2013-04-04 19:52:00,41.0,17.0,-100.00,NW,312,10.0,19.0,37,0.00,,,0.00,360.000000,,2013-04-04 23:52:00,
2013-04-04 20:01:00,37.0,17.0,-100.00,NNW,346,7.0,17.0,44,0.00,,,0.00,148.000000,,2013-04-05 00:01:00,
2013-04-04 20:22:00,37.0,17.0,-100.00,NNW,346,7.0,17.0,44,0.00,,,0.00,148.000000,,2013-04-05 00:22:00,
2013-04-04 20:33:00,37.0,17.0,-100.00,NNW,346,7.0,17.0,44,0.00,,,0.00,148.000000,,2013-04-05 00:33:00,
2013-04-04 20:43:00,37.0,17.0,-100.00,NNW,346,7.0,17.0,44,0.00,,,0.00,148.000000,,2013-04-05 00:43:00,
2013-04-04 20:52:00,37.0,17.0,-100.00,NNW,346,7.0,17.0,44,0.00,,,0.00,148.000000,,2013-04-05 00:52:00,
2013-04-04 21:01:00,34.0,15.0,-100.00,NNW,345,4.0,11.0,45,0.00,,,0.00,9.000000,,2013-04-05 01:01:00,
2013-04-04 21:32:00,34.0,15.0,-100.00,NNW,345,4.0,11.0,45,0.00,,,0.00,9.000000,,2013-04-05 01:32:00,
2013-04-04 21:42:00,34.0,15.0,-100.00,NNW,345,4.0,11.0,45,0.00,,,0.00,9.000000,,2013-04-05 01:42:00,
2013-04-04 21:53:00,34.0,15.0,-100.00,NNW,345,4.0,11.0,45,0.00,,,0.00,9.000000,,2013-04-05 01:53:00,
2013-04-04 22:01:00,28.0,16.0,-100.00,WNW,289,1.0,7.0,61,0.00,,,0.00,0.000000,,2013-04-05 02:01:00,
2013-04-04 22:32:00,28.0,16.0,-100.00,WNW,289,1.0,7.0,61,0.00,,,0.00,0.000000,,2013-04-05 02:32:00,
2013-04-04 22:42:00,28.0,16.0,-100.00,WNW,289,1.0,7.0,61,0.00,,,0.00,0.000000,,2013-04-05 02:42:00,
2013-04-04 22:52:00,28.0,16.0,-100.00,WNW,289,1.0,7.0,61,0.00,,,0.00,0.000000,,2013-04-05 02:52:00,
2013-04-04 23:01:00,29.0,17.0,-100.00,NNW,336,3.0,6.0,61,0.00,,,0.00,0.000000,,2013-04-05 03:01:00,
2013-04-04 23:33:00,29.0,17.0,-100.00,NNW,336,3.0,6.0,61,0.00,,,0.00,0.000000,,2013-04-05 03:33:00,
2013-04-04 23:43:00,29.0,17.0,-100.00,NNW,336,3.0,6.0,61,0.00,,,0.00,0.000000,,2013-04-05 03:43:00,
2013-04-04 23:54:00,29.0,17.0,-100.00,NNW,336,3.0,6.0,61,0.00,,,0.00,0.000000,,2013-04-05 03:54:00,